Regional Weather Roundup
Issued by NWS

Home | Current Version | Previous Version | Text Only | Print | Product List | Glossary On
Versions: 1 2 3 4 5 6 7 8 9 10 11 12 13 14 15 16 17 18 19 20 21 22 23 24 25 26 27 28 29 30 31 32 33 34 35 36 37 38 39 40 41 42 43 44 45 46 47 48 49 50
255
ASUS44 KLIX 241501
RWRLA
LOUISIANA WEATHER ROUNDUP
NATIONAL WEATHER SERVICE NEW ORLEANS LA
1000 AM CDT FRI OCT 24 2014

NOTE: "FAIR" INDICATES FEW OR NO CLOUDS BELOW 12,000 FEET WITH NO
      SIGNIFICANT WEATHER AND/OR OBSTRUCTIONS TO VISIBILITY.
      SKY/WX - SKY CONDITION AND SIGNIFICANT WEATHER.
      TMP - AIR TEMPERATURE.    DP   - DEWPOINT TEMPERATURE.
      RH  - RELATIVE HUMIDITY.  PRES - PRESSURE.
      HX  - HEAT INDEX.         WCI  - WIND CHILL INDEX.

*  THESE STATIONS ARE NOT NWS OR FAA STATIONS AND ARE NOT UNDER
   NWS QUALITY CONTROL.

LAZ040-048-061>063-065-066-069-241600-
SOUTHEAST LOUISIANA

CITY           SKY/WX    TMP DP  RH WIND       PRES   REMARKS
N.O. AUDUBON     N/A     70  53  55 MISG        N/A
N.O. INTL ARPT MOSUNNY   67  54  63 N7        30.12S
N.O. LAKEFRONT SUNNY     65  53  65 NE8       30.13R
N.O. DOWNTOWN* FAIR      66  48  52 NE3       30.12S
SLIDELL        SUNNY     63  51  65 NE3       30.12S
BATON ROUGE    SUNNY     62  50  64 NE5       30.15R
BOOTHVILLE     SUNNY     72  55  55 NE6       30.11R
BELLE CHASSE   SUNNY     68  55  63 VRB3      30.12R
BOGALUSA*        N/A     63  50  63 CALM      30.14F
NEW ROADS*     FAIR      58  51  77 CALM      30.15F
GONZALES*      FAIR      63  52  67 CALM      30.13S
HAMMOND*       NOT AVBL
HOUMA*         SUNNY     64  55  72 N7        30.12S
PORT FOURCHON* SUNNY     68  57  68 NE8       30.14S

$$

LAZ041-044-053-054-241600-
SOUTHWEST LOUISIANA

CITY           SKY/WX    TMP DP  RH WIND       PRES   REMARKS
LAKE CHARLES   SUNNY     63  52  67 N5        30.16R
LAFAYETTE      SUNNY     60  53  77 NE3       30.16R
PATTERSON      SUNNY     64  55  72 NE5       30.16S
SALT POINT       N/A     65  54  67 VRB3      30.13R
NEW IBERIA     SUNNY     63  53  70 NE6       30.16R
CHENAULT AIRPK SUNNY     61  54  77 N3        30.16S

$$

LAZ027-028-241600-
CENTRAL LOUISIANA

CITY           SKY/WX    TMP DP  RH WIND       PRES   REMARKS
FORT POLK      SUNNY     60  51  70 N5        30.16S
ALEXANDRIA INT SUNNY     59  52  77 N3        30.16S
ALEXANDRIA     SUNNY     58  51  78 E5        30.17S

$$

LAZ001-002-241600-
NORTHWEST LOUISIANA

CITY           SKY/WX    TMP DP  RH WIND       PRES   REMARKS
SHREVEPORT     SUNNY     62  51  67 CALM      30.19R
BARKSDALE AFB  SUNNY     60  51  69 CALM      30.19S
DTN SHREVEPORT SUNNY     60  49  66 CALM      30.19S

$$

LAZ014-016-241600-
NORTHEAST LOUISIANA

CITY           SKY/WX    TMP DP  RH WIND       PRES   REMARKS
MONROE         SUNNY     58  51  78 N3        30.20R
TALLULAH       SUNNY     60  50  69 N3        30.17S

$$




USA.gov is the U.S. government's official web portal to all federal, state and local government web resources and services.